Regional Weather Roundup
Issued by NWS

Home | Current Version | Previous Version | Text Only | Print | Product List | Glossary On
Versions: 1 2 3 4 5 6 7 8 9 10 11 12 13 14 15 16 17 18 19 20 21 22 23 24 25 26 27 28
000
ASUS45 KCYS 131010
RWRWY

WYOMING REGIONAL WEATHER ROUNDUP
NATIONAL WEATHER SERVICE CHEYENNE WY
300 AM MST WED DEC 13 2017

NOTE:  "FAIR" INDICATES FEW OR NO CLOUDS BELOW 12,000 FEET
WITH NO SIGNIFICANT WEATHER AND/OR OBSTRUCTIONS TO VISIBILITY.

WYZ001-131100-
YELLOWSTONE NATIONAL PARK

CITY           SKY/WX    TMP DP  RH WIND       PRES   REMARKS
LK YELLOWSTONE   N/A     10   7  87 NW3       30.32F
W YELLOWSTONE  NOT AVBL

$$
WYZ002>013-054>058-071-098>099-131100-
NORTHERN WYOMING

CITY           SKY/WX    TMP DP  RH WIND       PRES   REMARKS
JACKSON        CLOUDY    19  14  81 NE3       30.32S
CODY           FAIR      37   8  30 CALM      30.21S
GREYBULL       FAIR      39  13  34 NW5       30.16R
WORLAND        MOCLDY    29  20  69 SW6       30.17R WCI  23
SHERIDAN       FAIR      42  13  30 NW14      30.17R
BUFFALO        FAIR      45   6  20 NW30G40   30.13R
GILLETTE       FAIR      39  10  30 NW18      30.10R WCI  30
HULETT         FAIR      41  18  38 NW8       30.08S
NEWCASTLE      FAIR      34  16  47 NW18      30.05S WCI  23

$$
WYZ014>020-022>026-101>103-131100-
CENTRAL WYOMING

CITY           SKY/WX    TMP DP  RH WIND       PRES   REMARKS
BIG PINEY      FAIR      24  -1  33 NE10      30.27R WCI  14
PINEDALE       FAIR      18   7  62 NW3       30.27S
DUBOIS         FAIR      32  -2  23 NW14      30.23S WCI  22
LANDER         FAIR      35  17  47 CALM      30.19R
RIVERTON       FAIR      29  18  63 CALM      30.20R
CASPER         FAIR      29  20  69 SW7       30.17R WCI  22
DOUGLAS        MOCLDY    38  15  39 W15       30.13R WCI  29

$$
WYZ021-027>030-104>119-131100-
SOUTHERN WYOMING

CITY           SKY/WX    TMP DP  RH WIND       PRES   REMARKS
EVANSTON       FAIR      28  10  46 W10       30.30S WCI  19
FORT BRIDGER   FAIR      37   1  22 NW8       30.31R WCI  31
ROCK SPRINGS   FAIR      33   2  26 SW14      30.23S WCI  23
DIXON          FAIR      14   8  78 SE7       30.28S WCI   4
RAWLINS        CLOUDY    36   7  29 SW15      30.21R WCI  27
SARATOGA       PTSUNNY   30  12  47 NW6       30.22R WCI  24
LARAMIE        FAIR      34   2  25 W18       30.15R WCI  23
CHEYENNE       FAIR      36   3  25 N9        30.11R WCI  29
TORRINGTON     FAIR      47  10  22 NW17      30.06R
PINE BLUFFS    FAIR      32   9  37 MISG      30.10R

$$




USA.gov is the U.S. government's official web portal to all federal, state and local government web resources and services.